User: anonymous
Location: ActonStarParty
(42.4766°N, 71.4538°W)
Time: 04:49:38
(UTC-04:00)
Language:

ITAMSAT 1 - Orbit

View from above orbital plane
View from above orbital plane
View from above satellite
View from above satellite

Ground track
Ground track

The orbit data is extracted from the following two-line orbital elements,

1 22826U 93061D   14237.09352689  .00000071  00000-0  44505-4 0  5028
2 22826 098.6612 183.0316 0010149 090.1753 270.0592 14.30039906 90768
Epoch (UTC): 25 August 2014 02:14:40
Eccentricity: 0.0010149
inclination: 98.6612°
perigee height: 784 km
apogee height: 799 km
right ascension of ascending node: 183.0316°
argument of perigee: 90.1753°
revolutions per day: 14.30039906
mean anomaly at epoch: 270.0592°
orbit number at epoch: 9076

The dashed part of the orbit path shows where the satellite is in the earth's shadow,  

DLR